QPF
0.05 0.05 0.03 0.03 0.05 0.07 0.06 0.06 0.05 0.05 0.03 0.03 0.03 0.02 0.03 0.03 0.05 0.06 0.06 0.07 0.07 0.07 0.06 0.06 0.07 0.08 0.09 0.08 0.07 0.06 0.04 0.03 0.05 0.05 0.05 0.05 0.06 0.07
0.07 0.09 0.07 0.05 0.06 0.06 0.06 0.06 0.07 0.06 0.04 0.03 0.03 0.02 0.02 0.02 0.03 0.03 0.04 0.08 0.10 0.10 0.10 0.08 0.07 0.07 0.07 0.07 0.07 0.05 0.04 0.03 0.03 0.03 0.03 0.04 0.04 0.05
0.10 0.10 0.07 0.07 0.06 0.05 0.06 0.06 0.05 0.05 0.03 0.02 0.03 0.03 0.02 0.02 0.03 0.03 0.03 0.04 0.07 0.09 0.10 0.10 0.07 0.06 0.06 0.06 0.06 0.05 0.05 0.04 0.04 0.04 0.03 0.03 0.04 0.04
0.11 0.11 0.09 0.08 0.06 0.05 0.05 0.05 0.06 0.05 0.04 0.03 0.03 0.03 0.02 0.03 0.04 0.05 0.04 0.04 0.05 0.07 0.07 0.07 0.06 0.05 0.05 0.05 0.05 0.04 0.03 0.03 0.03 0.04 0.04 0.05 0.05 0.05
0.08 0.08 0.08 0.07 0.07 0.06 0.05 0.06 0.06 0.07 0.06 0.06 0.05 0.05 0.05 0.05 0.05 0.04 0.03 0.03 0.03 0.06 0.06 0.05 0.05 0.05 0.05 0.05 0.04 0.03 0.02 0.02 0.02 0.02 0.03 0.04 0.04 0.05
0.06 0.06 0.06 0.07 0.06 0.06 0.05 0.05 0.06 0.07 0.07 0.07 0.05 0.05 0.07 0.05 0.04 0.03 0.03 0.03 0.03 0.03 0.05 0.04 0.04 0.04 0.04 0.04 0.03 0.02 0.02 0.02 0.02 0.02 0.02 0.02 0.03 0.04
0.07 0.06 0.05 0.05 0.05 0.04 0.03 0.04 0.05 0.05 0.05 0.05 0.04 0.04 0.04 0.04 0.03 0.03 0.03 0.03 0.02 0.02 0.02 0.02 0.02 0.02 0.02 0.02 0.02 0.02 0.03 0.03 0.04 0.04 0.04 0.04 0.04 0.04
0.08 0.07 0.07 0.06 0.05 0.05 0.05 0.05 0.06 0.05 0.05 0.05 0.05 0.05 0.04 0.03 0.03 0.03 0.02 0.02 0.01 0.01 0.02 0.01 0.02 0.01 0.01 0.01 0.01 0.02 0.03 0.02 0.03 0.04 0.04 0.05 0.06 0.06
0.08 0.07 0.07 0.07 0.07 0.06 0.07 0.07 0.07 0.06 0.05 0.05 0.04 0.03 0.04 0.03 0.03 0.02 0.01 0.01 0.01 0.01 0.01 0.01 0.01 0.01 0.01 0.01 0.01 0.02 0.02 0.02 0.03 0.03 0.04 0.04 0.04 0.04
0.06 0.06 0.06 0.07 0.08 0.08 0.07 0.06 0.04 0.04 0.05 0.04 0.03 0.02 0.02 0.03 0.03 0.02 0.02 0.02 0.01 0.01 0.01 0.01 0.01 0.01 0.01 0.02 0.02 0.03 0.03 0.04 0.04 0.03 0.03 0.04 0.04 0.04
0.06 0.05 0.06 0.06 0.07 0.07 0.07 0.06 0.04 0.03 0.04 0.04 0.03 0.02 0.02 0.02 0.03 0.02 0.02 0.02 0.02 0.01 0.01 0.01 0.01 0.01 0.02 0.02 0.02 0.03 0.04 0.04 0.04 0.03 0.04 0.04 0.05 0.06
0.05 0.05 0.07 0.09 0.11 0.13 0.12 0.10 0.08 0.06 0.04 0.03 0.02 0.02 0.02 0.02 0.02 0.02 0.02 0.02 0.02 0.01 0.01 0.01 0.01 0.02 0.02 0.02 0.02 0.03 0.05 0.06 0.06 0.06 0.06 0.06 0.06 0.05
0.05 0.04 0.04 0.05 0.06 0.07 0.07 0.06 0.06 0.05 0.03 0.03 0.02 0.02 0.02 0.02 0.02 0.01 0.01 0.02 0.02 0.02 0.01 0.02 0.03 0.03 0.04 0.04 0.04 0.04 0.05 0.07 0.07 0.07 0.07 0.07 0.07 0.05
0.03 0.02 0.02 0.01 0.01 0.01 0.01 0.01 0.01 0.01 0.01 0.00 0.00 0.00 0.00 0.00 0.00 0.00 0.01 0.01 0.02 0.02 0.02 0.03 0.04 0.05 0.06 0.05 0.04 0.04 0.05 0.05 0.04 0.04 0.04 0.05 0.05 0.05
0.01 0.01 0.01 0.01 0.01 0.01 0.00 0.00 0.00 0.00 0.00 0.00 0.00 0.00 0.00 0.00 0.00 0.00 0.00 0.01 0.01 0.02 0.03 0.03 0.04 0.04 0.04 0.03 0.03 0.03 0.04 0.03 0.03 0.03 0.03 0.03 0.03 0.04
0.01 0.01 0.01 0.01 0.01 0.01 0.01 0.00 0.00 0.01 0.01 0.01 0.00 0.00 0.00 0.00 0.01 0.01 0.01 0.01 0.01 0.01 0.01 0.01 0.01 0.02 0.02 0.02 0.03 0.03 0.03 0.03 0.03 0.03 0.03 0.03 0.03 0.04
0.01 0.01 0.01 0.01 0.01 0.01 0.01 0.01 0.01 0.01 0.01 0.01 0.01 0.01 0.01 0.01 0.01 0.01 0.01 0.01 0.01 0.01 0.01 0.01 0.01 0.01 0.02 0.02 0.02 0.02 0.02 0.02 0.03 0.03 0.03 0.04 0.03 0.04
0.01 0.00 0.01 0.01 0.01 0.01 0.01 0.01 0.01 0.01 0.01 0.01 0.01 0.00 0.00 0.01 0.01 0.01 0.01 0.01 0.01 0.01 0.01 0.01 0.02 0.02 0.02 0.02 0.02 0.02 0.02 0.03 0.03 0.03 0.03 0.03 0.03 0.03
0.01 0.01 0.01 0.01 0.01 0.01 0.01 0.01 0.01 0.01 0.01 0.01 0.01 0.01 0.01 0.01 0.01 0.01 0.01 0.02 0.02 0.02 0.01 0.01 0.02 0.03 0.03 0.03 0.03 0.03 0.03 0.03 0.04 0.04 0.04 0.04 0.04 0.03
0.01 0.01 0.01 0.01 0.01 0.01 0.01 0.01 0.02 0.02 0.02 0.01 0.01 0.01 0.01 0.01 0.01 0.01 0.01 0.01 0.02 0.02 0.02 0.02 0.02 0.02 0.03 0.04 0.04 0.04 0.04 0.04 0.05 0.05 0.05 0.05 0.05 0.05
0.02 0.02 0.01 0.01 0.01 0.01 0.01 0.01 0.02 0.02 0.01 0.01 0.01 0.01 0.01 0.01 0.01 0.01 0.01 0.01 0.01 0.01 0.01 0.01 0.02 0.02 0.02 0.03 0.03 0.03 0.04 0.05 0.06 0.06 0.05 0.05 0.05 0.05
0.02 0.01 0.01 0.01 0.02 0.02 0.02 0.02 0.01 0.01 0.01 0.01 0.01 0.01 0.01 0.01 0.01 0.01 0.01 0.01 0.01 0.01 0.01 0.01 0.01 0.01 0.02 0.02 0.03 0.03 0.03 0.04 0.05 0.06 0.06 0.05 0.05 0.05
0.01 0.01 0.01 0.01 0.01 0.01 0.01 0.01 0.01 0.01 0.01 0.01 0.01 0.01 0.01 0.01 0.01 0.01 0.01 0.01 0.01 0.01 0.01 0.01 0.02 0.02 0.02 0.02 0.03 0.03 0.03 0.03 0.04 0.04 0.05 0.05 0.05 0.04
MSLP
1017.52 1017.86 1018.17 1018.42 1018.56 1018.57 1018.44 1018.18 1017.81 1017.36 1016.87 1016.36 1015.87 1015.42 1014.98 1014.57 1014.18 1013.80 1013.43 1013.07 1012.75 1012.48 1012.27 1012.14 1012.09 1012.10 1012.17 1012.28 1012.41 1012.54 1012.66 1012.78 1012.90 1013.03 1013.18 1013.38 1013.62 1013.93
1017.38 1017.71 1018.02 1018.27 1018.43 1018.47 1018.39 1018.18 1017.88 1017.49 1017.05 1016.59 1016.12 1015.66 1015.19 1014.73 1014.28 1013.83 1013.38 1012.96 1012.58 1012.26 1012.01 1011.85 1011.76 1011.73 1011.76 1011.82 1011.90 1011.97 1012.04 1012.10 1012.17 1012.26 1012.39 1012.58 1012.83 1013.17
1017.29 1017.59 1017.87 1018.11 1018.26 1018.32 1018.27 1018.12 1017.88 1017.56 1017.19 1016.79 1016.36 1015.92 1015.45 1014.98 1014.48 1013.99 1013.49 1013.03 1012.61 1012.25 1011.97 1011.77 1011.65 1011.59 1011.58 1011.59 1011.61 1011.62 1011.63 1011.65 1011.68 1011.74 1011.87 1012.07 1012.35 1012.74
1017.22 1017.48 1017.72 1017.92 1018.06 1018.12 1018.10 1017.99 1017.81 1017.57 1017.28 1016.95 1016.58 1016.17 1015.74 1015.27 1014.77 1014.25 1013.74 1013.25 1012.80 1012.43 1012.13 1011.91 1011.76 1011.67 1011.62 1011.58 1011.55 1011.51 1011.48 1011.45 1011.45 1011.51 1011.65 1011.88 1012.21 1012.65
1017.13 1017.34 1017.54 1017.71 1017.83 1017.89 1017.88 1017.81 1017.68 1017.51 1017.29 1017.03 1016.73 1016.39 1016.00 1015.56 1015.08 1014.58 1014.07 1013.58 1013.13 1012.75 1012.45 1012.22 1012.06 1011.94 1011.86 1011.79 1011.72 1011.64 1011.56 1011.51 1011.50 1011.57 1011.72 1011.99 1012.38 1012.90
1016.97 1017.14 1017.31 1017.45 1017.55 1017.60 1017.60 1017.56 1017.48 1017.36 1017.21 1017.02 1016.79 1016.51 1016.18 1015.79 1015.35 1014.89 1014.41 1013.95 1013.53 1013.17 1012.88 1012.66 1012.49 1012.37 1012.27 1012.18 1012.08 1011.97 1011.88 1011.81 1011.80 1011.88 1012.07 1012.38 1012.83 1013.40
1016.70 1016.85 1016.99 1017.11 1017.19 1017.24 1017.25 1017.23 1017.18 1017.11 1017.01 1016.89 1016.72 1016.51 1016.24 1015.91 1015.53 1015.12 1014.70 1014.29 1013.92 1013.60 1013.34 1013.15 1013.01 1012.90 1012.80 1012.71 1012.60 1012.48 1012.38 1012.32 1012.32 1012.41 1012.63 1012.98 1013.47 1014.09
1016.29 1016.44 1016.58 1016.69 1016.77 1016.81 1016.83 1016.82 1016.79 1016.75 1016.70 1016.62 1016.51 1016.35 1016.15 1015.89 1015.59 1015.25 1014.90 1014.55 1014.25 1013.99 1013.79 1013.64 1013.54 1013.46 1013.39 1013.31 1013.22 1013.12 1013.03 1012.98 1012.99 1013.11 1013.35 1013.73 1014.24 1014.88
1015.76 1015.92 1016.07 1016.19 1016.27 1016.32 1016.34 1016.34 1016.33 1016.31 1016.28 1016.24 1016.18 1016.08 1015.94 1015.75 1015.52 1015.26 1014.99 1014.72 1014.49 1014.31 1014.18 1014.09 1014.05 1014.02 1013.99 1013.96 1013.90 1013.83 1013.77 1013.75 1013.79 1013.92 1014.17 1014.56 1015.08 1015.72
1015.13 1015.32 1015.49 1015.63 1015.72 1015.78 1015.81 1015.82 1015.82 1015.82 1015.81 1015.81 1015.79 1015.74 1015.65 1015.53 1015.38 1015.19 1015.00 1014.81 1014.66 1014.55 1014.49 1014.48 1014.49 1014.53 1014.56 1014.58 1014.58 1014.57 1014.55 1014.57 1014.64 1014.79 1015.05 1015.43 1015.93 1016.54
1014.46 1014.68 1014.88 1015.04 1015.16 1015.23 1015.28 1015.30 1015.32 1015.33 1015.35 1015.37 1015.39 1015.39 1015.36 1015.31 1015.21 1015.10 1014.98 1014.86 1014.78 1014.74 1014.74 1014.78 1014.87 1014.96 1015.06 1015.15 1015.21 1015.26 1015.31 1015.38 1015.49 1015.66 1015.93 1016.30 1016.77 1017.33
1013.79 1014.04 1014.27 1014.46 1014.60 1014.70 1014.76 1014.80 1014.84 1014.88 1014.93 1014.99 1015.05 1015.09 1015.12 1015.12 1015.09 1015.03 1014.97 1014.91 1014.87 1014.88 1014.93 1015.02 1015.15 1015.30 1015.46 1015.62 1015.75 1015.87 1015.99 1016.11 1016.27 1016.48 1016.76 1017.11 1017.55 1018.05
1013.17 1013.44 1013.69 1013.89 1014.06 1014.18 1014.26 1014.33 1014.40 1014.47 1014.56 1014.66 1014.76 1014.86 1014.94 1014.99 1015.01 1015.00 1014.98 1014.96 1014.95 1014.98 1015.06 1015.18 1015.34 1015.53 1015.74 1015.94 1016.15 1016.34 1016.52 1016.71 1016.92 1017.17 1017.46 1017.81 1018.21 1018.66
1012.61 1012.88 1013.13 1013.35 1013.52 1013.66 1013.76 1013.86 1013.96 1014.07 1014.20 1014.35 1014.50 1014.65 1014.78 1014.88 1014.95 1014.98 1014.99 1014.99 1015.00 1015.04 1015.12 1015.24 1015.41 1015.62 1015.86 1016.11 1016.36 1016.61 1016.86 1017.11 1017.37 1017.66 1017.97 1018.31 1018.69 1019.10
1012.12 1012.37 1012.60 1012.81 1012.98 1013.11 1013.23 1013.35 1013.48 1013.62 1013.80 1013.99 1014.20 1014.40 1014.59 1014.74 1014.84 1014.91 1014.95 1014.96 1014.98 1015.01 1015.08 1015.20 1015.36 1015.57 1015.81 1016.08 1016.37 1016.67 1016.97 1017.27 1017.57 1017.89 1018.22 1018.57 1018.94 1019.31
1011.70 1011.90 1012.09 1012.26 1012.40 1012.53 1012.65 1012.77 1012.92 1013.10 1013.30 1013.54 1013.80 1014.05 1014.28 1014.48 1014.63 1014.73 1014.79 1014.82 1014.85 1014.87 1014.93 1015.03 1015.17 1015.37 1015.60 1015.88 1016.18 1016.50 1016.83 1017.17 1017.51 1017.85 1018.20 1018.55 1018.90 1019.24
1011.37 1011.50 1011.62 1011.73 1011.83 1011.92 1012.01 1012.13 1012.28 1012.47 1012.70 1012.96 1013.25 1013.54 1013.82 1014.06 1014.25 1014.39 1014.49 1014.54 1014.58 1014.61 1014.66 1014.74 1014.87 1015.04 1015.27 1015.53 1015.83 1016.15 1016.49 1016.83 1017.18 1017.54 1017.89 1018.23 1018.57 1018.89
1011.15 1011.19 1011.23 1011.27 1011.30 1011.34 1011.39 1011.48 1011.61 1011.78 1012.01 1012.28 1012.58 1012.90 1013.20 1013.48 1013.71 1013.90 1014.03 1014.12 1014.18 1014.24 1014.30 1014.38 1014.49 1014.65 1014.85 1015.09 1015.37 1015.67 1016.00 1016.33 1016.67 1017.01 1017.35 1017.68 1017.99 1018.29
1011.08 1011.03 1010.99 1010.95 1010.91 1010.89 1010.88 1010.92 1011.00 1011.14 1011.34 1011.59 1011.88 1012.20 1012.52 1012.82 1013.09 1013.31 1013.49 1013.63 1013.73 1013.82 1013.90 1013.99 1014.11 1014.25 1014.43 1014.65 1014.89 1015.16 1015.45 1015.75 1016.06 1016.38 1016.69 1016.99 1017.27 1017.54
1011.22 1011.09 1010.97 1010.85 1010.75 1010.66 1010.60 1010.57 1010.60 1010.68 1010.83 1011.04 1011.30 1011.59 1011.90 1012.21 1012.49 1012.75 1012.97 1013.16 1013.31 1013.43 1013.55 1013.66 1013.78 1013.92 1014.08 1014.26 1014.47 1014.69 1014.94 1015.19 1015.46 1015.73 1016.00 1016.26 1016.52 1016.76
1011.58 1011.39 1011.22 1011.05 1010.89 1010.74 1010.62 1010.54 1010.50 1010.52 1010.60 1010.75 1010.95 1011.20 1011.47 1011.77 1012.05 1012.33 1012.58 1012.79 1012.98 1013.14 1013.29 1013.42 1013.55 1013.68 1013.82 1013.98 1014.14 1014.32 1014.51 1014.72 1014.93 1015.15 1015.38 1015.60 1015.82 1016.04
1012.14 1011.93 1011.73 1011.53 1011.34 1011.16 1011.00 1010.86 1010.76 1010.72 1010.73 1010.80 1010.93 1011.12 1011.34 1011.60 1011.86 1012.12 1012.38 1012.61 1012.81 1013.00 1013.16 1013.30 1013.43 1013.55 1013.67 1013.79 1013.92 1014.05 1014.19 1014.35 1014.51 1014.69 1014.87 1015.06 1015.26 1015.45
1012.84 1012.63 1012.44 1012.24 1012.05 1011.86 1011.67 1011.50 1011.36 1011.26 1011.20 1011.21 1011.26 1011.37 1011.53 1011.72 1011.94 1012.16 1012.39 1012.61 1012.80 1012.98 1013.14 1013.27 1013.39 1013.49 1013.59 1013.67 1013.76 1013.85 1013.96 1014.07 1014.20 1014.34 1014.50 1014.66 1014.84 1015.02
Thickness
5735 5734 5732 5732 5731 5729 5727 5723 5716 5709 5707 5709 5709 5710 5709 5708 5708 5707 5706 5705 5703 5702 5700 5698 5696 5694 5692 5690 5688 5686 5684 5682 5679 5677 5675 5673 5670 5668
5733 5731 5730 5729 5728 5726 5724 5721 5718 5713 5706 5706 5706 5705 5705 5703 5702 5702 5700 5699 5698 5696 5695 5693 5691 5689 5687 5684 5682 5680 5678 5676 5674 5672 5670 5668 5665 5663
5729 5727 5726 5725 5723 5722 5720 5717 5714 5711 5704 5702 5701 5700 5698 5697 5696 5695 5694 5692 5691 5690 5689 5687 5685 5683 5681 5679 5676 5674 5672 5670 5668 5666 5663 5662 5660 5657
5724 5723 5721 5721 5718 5717 5714 5712 5709 5707 5702 5696 5694 5693 5691 5690 5689 5688 5687 5685 5684 5683 5682 5680 5678 5676 5674 5672 5670 5668 5666 5663 5661 5659 5657 5656 5653 5651
5720 5718 5717 5715 5713 5711 5709 5706 5704 5702 5698 5694 5689 5687 5685 5684 5682 5680 5679 5678 5677 5676 5674 5673 5671 5669 5667 5665 5663 5661 5659 5657 5654 5652 5650 5648 5646 5643
5716 5714 5712 5711 5709 5706 5704 5701 5699 5696 5692 5688 5684 5681 5678 5677 5675 5672 5670 5669 5669 5668 5666 5665 5663 5661 5660 5658 5656 5654 5652 5650 5648 5645 5643 5640 5638 5636
5710 5709 5708 5706 5704 5702 5699 5696 5694 5691 5687 5683 5679 5675 5673 5670 5668 5666 5663 5661 5660 5659 5657 5656 5655 5653 5652 5650 5648 5646 5644 5642 5640 5638 5635 5633 5631 5628
5703 5702 5701 5699 5698 5696 5694 5692 5690 5686 5682 5678 5674 5670 5668 5666 5663 5660 5656 5653 5651 5651 5648 5647 5646 5644 5643 5642 5640 5638 5636 5634 5632 5630 5627 5625 5622 5620
5698 5695 5694 5693 5691 5689 5687 5685 5683 5682 5680 5676 5670 5667 5664 5661 5658 5654 5651 5648 5646 5644 5641 5638 5637 5635 5635 5633 5631 5629 5627 5625 5623 5621 5619 5616 5613 5610
5692 5689 5687 5685 5684 5681 5679 5676 5675 5673 5672 5670 5666 5663 5660 5657 5654 5650 5646 5643 5640 5637 5634 5630 5628 5626 5626 5624 5622 5620 5618 5616 5613 5611 5609 5607 5604 5600
5685 5683 5680 5678 5676 5674 5671 5668 5666 5664 5663 5662 5659 5656 5653 5650 5647 5642 5638 5634 5631 5629 5626 5623 5620 5618 5617 5615 5613 5611 5608 5606 5604 5601 5599 5596 5594 5590
5677 5675 5673 5671 5669 5666 5663 5659 5656 5654 5653 5651 5648 5646 5644 5641 5638 5636 5632 5627 5623 5620 5618 5615 5612 5608 5606 5606 5604 5601 5599 5596 5594 5591 5588 5586 5583 5579
5669 5666 5664 5663 5661 5658 5655 5652 5649 5646 5644 5641 5638 5635 5633 5631 5629 5627 5624 5620 5616 5612 5611 5607 5603 5599 5596 5594 5593 5591 5589 5586 5584 5581 5578 5576 5573 5570
5662 5659 5657 5655 5652 5650 5647 5644 5641 5638 5635 5632 5628 5625 5623 5621 5620 5618 5615 5612 5609 5606 5604 5600 5596 5592 5587 5584 5582 5581 5579 5577 5574 5572 5569 5566 5563 5560
5655 5652 5649 5647 5644 5641 5639 5636 5633 5629 5625 5622 5619 5616 5615 5613 5611 5608 5605 5603 5600 5597 5594 5591 5588 5584 5580 5576 5573 5571 5568 5567 5565 5562 5560 5557 5555 5551
5646 5643 5640 5637 5635 5632 5629 5626 5623 5620 5617 5613 5610 5608 5606 5603 5600 5597 5594 5591 5588 5586 5584 5582 5579 5575 5571 5568 5564 5562 5560 5558 5556 5554 5551 5548 5546 5543
5637 5633 5629 5626 5623 5620 5618 5615 5613 5610 5607 5604 5601 5598 5595 5593 5590 5587 5583 5580 5576 5574 5572 5571 5569 5566 5563 5559 5556 5553 5551 5549 5547 5545 5541 5538 5537 5535
5629 5624 5620 5617 5614 5612 5609 5606 5604 5601 5598 5595 5592 5588 5586 5583 5580 5577 5574 5571 5567 5564 5562 5560 5558 5555 5552 5550 5549 5545 5542 5540 5538 5536 5532 5529 5528 5527
5621 5617 5613 5610 5607 5604 5600 5598 5595 5592 5589 5586 5583 5579 5576 5573 5570 5567 5564 5561 5558 5556 5553 5551 5548 5544 5541 5540 5539 5538 5534 5532 5529 5526 5524 5521 5520 5519
5612 5609 5606 5603 5599 5595 5592 5589 5586 5583 5580 5577 5574 5571 5568 5564 5561 5558 5555 5552 5549 5547 5544 5542 5539 5536 5534 5532 5530 5528 5527 5524 5521 5518 5515 5513 5512 5511
5604 5601 5598 5595 5591 5588 5584 5581 5578 5575 5572 5568 5565 5562 5559 5555 5552 5550 5547 5544 5541 5538 5536 5534 5534 5532 5528 5523 5519 5518 5518 5516 5514 5510 5507 5504 5502 5500
5597 5594 5591 5587 5584 5580 5577 5573 5570 5566 5563 5560 5557 5553 5550 5547 5544 5541 5538 5535 5533 5530 5528 5527 5525 5521 5517 5514 5511 5509 5507 5507 5505 5503 5501 5499 5495 5493
5589 5586 5583 5579 5575 5572 5568 5565 5562 5558 5555 5551 5548 5544 5541 5538 5535 5532 5530 5527 5524 5522 5519 5517 5514 5511 5508 5505 5502 5499 5498 5496 5494 5493 5492 5492 5491 5490